Hourly Weather Bolshie Krugovichi

Today, 4 August, Wednesday

Time Temperature Precipitation Wind Pressure Humidity
00:00 +13°C° 0 mm 1 mps 745 mmHg 87%
01:00 +13°C° 0 mm 1 mps 745 mmHg 88%
02:00 +13°C° 0 mm 1 mps 745 mmHg 88%
03:00 +13°C° 0 mm 1 mps 745 mmHg 87%
04:00 +12°C° 0 mm 1 mps 745 mmHg 86%
05:00 +12°C° 0 mm 1 mps 745 mmHg 85%
06:00 +14°C° 0 mm 1 mps 745 mmHg 78%
07:00 +16°C° 0 mm 1 mps 746 mmHg 71%
08:00 +19°C° 0 mm 1 mps 746 mmHg 64%
09:00 +20°C° 0 mm 2 mps 746 mmHg 58%
10:00 +23°C° 0 mm 2 mps 746 mmHg 52%
11:00 +24°C° 0 mm 3 mps 746 mmHg 45%
12:00 +24°C° 0 mm 3 mps 745 mmHg 46%
13:00 +25°C° 0 mm 3 mps 745 mmHg 47%
14:00 +25°C° 0 mm 3 mps 744 mmHg 48%
15:00 +24°C° 0.2 mm 3 mps 744 mmHg 54%
16:00 +22°C° 0.2 mm 3 mps 744 mmHg 61%
17:00 +21°C° 0.2 mm 3 mps 744 mmHg 67%
18:00 +19°C° 1.5 mm 3 mps 744 mmHg 76%
19:00 +18°C° 1.5 mm 2 mps 744 mmHg 86%
20:00 +16°C° 1.5 mm 2 mps 744 mmHg 96%
21:00 +16°C° 0.2 mm 2 mps 744 mmHg 96%
22:00 +16°C° 0.2 mm 2 mps 744 mmHg 96%
23:00 +16°C° 0.2 mm 2 mps 744 mmHg 96%

Tomorrow, 5 August, Thursday

Time Temperature Precipitation Wind Pressure Humidity
00:00 +15°C° 0.1 mm 2 mps 744 mmHg 96%
01:00 +15°C° 0.1 mm 2 mps 743 mmHg 96%
02:00 +15°C° 0.1 mm 2 mps 743 mmHg 97%
03:00 +14°C° 0.2 mm 1 mps 743 mmHg 96%
04:00 +14°C° 0.2 mm 1 mps 743 mmHg 96%
05:00 +14°C° 0.2 mm 1 mps 743 mmHg 96%
06:00 +15°C° 0 mm 1 mps 743 mmHg 92%
07:00 +16°C° 0 mm 1 mps 743 mmHg 89%
08:00 +18°C° 0 mm 1 mps 743 mmHg 85%
09:00 +19°C° 0 mm 1 mps 743 mmHg 80%
10:00 +20°C° 0 mm 1 mps 743 mmHg 74%
11:00 +21°C° 0 mm 1 mps 743 mmHg 69%
12:00 +21°C° 0.1 mm 1 mps 742 mmHg 70%
13:00 +21°C° 0.1 mm 1 mps 742 mmHg 71%
14:00 +21°C° 0.1 mm 1 mps 742 mmHg 71%
15:00 +20°C° 0.5 mm 1 mps 742 mmHg 79%
16:00 +19°C° 0.5 mm 1 mps 742 mmHg 86%
17:00 +18°C° 0.5 mm 1 mps 741 mmHg 93%
18:00 +17°C° 0 mm 2 mps 741 mmHg 93%
19:00 +17°C° 0 mm 2 mps 741 mmHg 93%
20:00 +16°C° 0 mm 3 mps 740 mmHg 93%
21:00 +16°C° 0 mm 3 mps 740 mmHg 94%
22:00 +16°C° 0 mm 3 mps 740 mmHg 95%
23:00 +16°C° 0 mm 3 mps 740 mmHg 95%

Day after tomorrow, 6 August, Friday

Time Temperature Precipitation Wind Pressure Humidity
00:00 +15°C° 0.9 mm 4 mps 739 mmHg 96%
01:00 +15°C° 0.9 mm 4 mps 738 mmHg 96%
02:00 +15°C° 0.9 mm 5 mps 737 mmHg 97%
03:00 +15°C° 2.6 mm 5 mps 736 mmHg 97%
04:00 +15°C° 2.6 mm 5 mps 735 mmHg 98%
05:00 +15°C° 2.6 mm 5 mps 735 mmHg 98%
06:00 +17°C° 0.6 mm 4 mps 735 mmHg 98%
07:00 +17°C° 0.6 mm 4 mps 735 mmHg 97%
08:00 +18°C° 0.6 mm 3 mps 735 mmHg 97%
09:00 +19°C° 0.3 mm 4 mps 735 mmHg 91%
10:00 +21°C° 0.3 mm 5 mps 735 mmHg 85%
11:00 +22°C° 0.3 mm 5 mps 735 mmHg 80%
12:00 +23°C° 0.2 mm 6 mps 735 mmHg 76%
13:00 +23°C° 0.2 mm 6 mps 734 mmHg 72%
14:00 +23°C° 0.2 mm 6 mps 734 mmHg 68%
15:00 +22°C° 0 mm 6 mps 735 mmHg 73%
16:00 +20°C° 0 mm 6 mps 735 mmHg 78%
17:00 +19°C° 0 mm 6 mps 735 mmHg 83%
18:00 +16°C° 0 mm 5 mps 735 mmHg 85%
19:00 +15°C° 0 mm 5 mps 736 mmHg 86%
20:00 +14°C° 0 mm 5 mps 736 mmHg 88%
21:00 +14°C° 0 mm 5 mps 736 mmHg 88%
22:00 +14°C° 0 mm 4 mps 737 mmHg 89%
23:00 +13°C° 0 mm 4 mps 737 mmHg 90%

7 August, Saturday

Time Temperature Precipitation Wind Pressure Humidity
00:00 +13°C° 0 mm 4 mps 737 mmHg 90%
01:00 +13°C° 0 mm 4 mps 737 mmHg 90%
02:00 +13°C° 0 mm 4 mps 738 mmHg 89%
03:00 +13°C° 0 mm 4 mps 738 mmHg 90%
04:00 +13°C° 0 mm 3 mps 738 mmHg 91%
05:00 +13°C° 0 mm 3 mps 738 mmHg 91%
06:00 +13°C° 0 mm 3 mps 739 mmHg 91%
07:00 +13°C° 0 mm 4 mps 739 mmHg 91%
08:00 +13°C° 0 mm 4 mps 739 mmHg 91%
09:00 +14°C° 0 mm 4 mps 740 mmHg 85%
10:00 +15°C° 0 mm 4 mps 740 mmHg 79%
11:00 +17°C° 0 mm 4 mps 741 mmHg 73%
12:00 +18°C° 0 mm 4 mps 741 mmHg 68%
13:00 +19°C° 0 mm 4 mps 741 mmHg 64%
14:00 +20°C° 0 mm 4 mps 741 mmHg 59%
15:00 +21°C° 0 mm 4 mps 741 mmHg 58%
16:00 +21°C° 0 mm 4 mps 741 mmHg 58%
17:00 +21°C° 0 mm 4 mps 742 mmHg 57%
18:00 +20°C° 0 mm 3 mps 742 mmHg 65%
19:00 +18°C° 0 mm 2 mps 742 mmHg 72%
20:00 +16°C° 0 mm 1 mps 742 mmHg 80%
21:00 +16°C° 0 mm 1 mps 743 mmHg 81%
22:00 +15°C° 0 mm 1 mps 743 mmHg 83%
23:00 +14°C° 0 mm 2 mps 743 mmHg 85%

8 August, Sunday

Time Temperature Precipitation Wind Pressure Humidity
00:00 +14°C° 0 mm 1 mps 743 mmHg 86%
01:00 +14°C° 0 mm 1 mps 744 mmHg 86%
02:00 +13°C° 0 mm 1 mps 744 mmHg 86%
03:00 +13°C° 0 mm 1 mps 744 mmHg 86%
04:00 +13°C° 0 mm 2 mps 744 mmHg 85%
05:00 +13°C° 0 mm 2 mps 744 mmHg 85%
06:00 +15°C° 0 mm 2 mps 744 mmHg 78%
07:00 +17°C° 0 mm 2 mps 744 mmHg 71%
08:00 +19°C° 0 mm 2 mps 744 mmHg 64%
09:00 +21°C° 0 mm 2 mps 744 mmHg 60%
10:00 +22°C° 0 mm 3 mps 745 mmHg 55%
11:00 +25°C° 0 mm 3 mps 745 mmHg 51%
12:00 +26°C° 0 mm 3 mps 745 mmHg 50%
13:00 +26°C° 0 mm 3 mps 745 mmHg 48%
14:00 +27°C° 0 mm 3 mps 745 mmHg 47%
15:00 +27°C° 0 mm 3 mps 745 mmHg 50%
16:00 +27°C° 0 mm 3 mps 744 mmHg 53%
17:00 +27°C° 0 mm 2 mps 744 mmHg 57%
18:00 +25°C° 0 mm 3 mps 744 mmHg 61%
19:00 +24°C° 0 mm 3 mps 744 mmHg 65%
20:00 +22°C° 0 mm 3 mps 744 mmHg 69%
21:00 +21°C° 0.1 mm 3 mps 744 mmHg 72%
22:00 +20°C° 0.1 mm 3 mps 745 mmHg 75%
23:00 +19°C° 0.1 mm 3 mps 745 mmHg 79%

9 August, Monday

Time Temperature Precipitation Wind Pressure Humidity
00:00 +19°C° 0.1 mm 2 mps 745 mmHg 83%
01:00 +18°C° 0.1 mm 2 mps 745 mmHg 87%
02:00 +18°C° 0.1 mm 2 mps 745 mmHg 91%
03:00 +18°C° 0.1 mm 2 mps 745 mmHg 92%
04:00 +17°C° 0.1 mm 2 mps 745 mmHg 94%
05:00 +17°C° 0.1 mm 2 mps 745 mmHg 95%
06:00 +18°C° 0.3 mm 2 mps 745 mmHg 93%
07:00 +19°C° 0.3 mm 3 mps 746 mmHg 92%
08:00 +19°C° 0.3 mm 3 mps 746 mmHg 90%
09:00 +19°C° 0.2 mm 3 mps 747 mmHg 89%
10:00 +19°C° 0.2 mm 2 mps 747 mmHg 87%
11:00 +19°C° 0.2 mm 2 mps 747 mmHg 86%
12:00 +21°C° 0 mm 2 mps 748 mmHg 75%
13:00 +24°C° 0 mm 2 mps 748 mmHg 64%
14:00 +26°C° 0 mm 3 mps 748 mmHg 53%
15:00 +26°C° 0 mm 3 mps 748 mmHg 54%
16:00 +25°C° 0 mm 3 mps 748 mmHg 56%
17:00 +25°C° 0 mm 2 mps 748 mmHg 57%
18:00 +24°C° 0 mm 2 mps 748 mmHg 64%
19:00 +21°C° 0 mm 2 mps 748 mmHg 71%
20:00 +20°C° 0 mm 1 mps 748 mmHg 78%
21:00 +20°C° 0 mm 1 mps 748 mmHg 80%
22:00 +19°C° 0 mm 1 mps 748 mmHg 82%
23:00 +18°C° 0 mm 1 mps 749 mmHg 84%
Show more

We Need Your Consent

Meteoprog and our Service Providers may store and access personal data such as cookies, device identifiers or other similar technologies on your device and process such data to personalise content and ads, as well as provide social media features and to analyse the traffic.

  • Store and/or access information on your device

    Cookies, device identifiers or other information can be stored or accessed on your device for the purposes indicated above.

  • Personalised ads and content, ad and content measurement, audience insights, and products development

    Ads and content can be personalised based on a profile. More data can be added to better personalise ads and content. Ad and content performance can be measured. Insights about the audience who saw the ads and content can be derived. Such data can be used to develop or improve user’s experience, systems and software.

By clicking ‘I Agree’ you will allow the use of indicated cookies, device identifiers, web beacons or other similar technologies. Your settings can be changed in the browser on your device.

For certain purposes, legitimate interests may be relied on, rather than consent. You can read more about this in our Privacy and Cookie Policy.